Location: Taaricht
(32.5378°N, 5.4251°W)
Time: 13:59:48
(UTC+00:00)

Cosmos 2263 - Pass Details

Date: 09 April 2020
Orbit: 833 x 864 km, 70.9° (Epoch: 04 June)

Event Time Altitude Azimuth Distance (km) Brightness Sun altitude
Rises 19:15:09 0° 344° (NNW) 3,382 7.8 -6.5°
Reaches altitude 10° 19:17:39 10° 348° (NNW) 2,445 7.0 -7.0°
Maximum altitude 19:23:09 58° 67° (ENE) 971 4.3 -8.1°
Drops below altitude 10° 19:28:39 10° 146° (SSE) 2,439 6.2 -9.3°
Enters shadow 19:30:44 - 150° (SSE) 3,222 6.8 -9.7°
